THORAD DELTA 1 DEB, 8161

Orbit data source: Space-Track

THORAD DELTA 1 DEB, 8161 is space debris in LEO originally from a launch on Fri, 15 Nov 1974 UTC launched from the Air Force Western Test Range (AFWTR). Debris objects in space refer to the collection of defunct objects orbiting the Earth. Examples of debris include non-operational satellites, rocket bodies, and fragments generated from explosions, collisions, or faulty payload assembly.

Loading next visibility...
Identifier
8161, 1974-089AB
Orbit
LEO
Country
Flag of USUS
Related business
Manufacturer
Unknown
Mission
Spacecraft
Bus & Motor
Unknown
Mass
Unknown
Launch date (UTC)
1974-11-15 (51 years ago)
Launch vehicle
Unknown
Launch site
Air Force Western Test Range (AFWTR)
Object type
Payload
Rocket body
Debris
Shape & HBR
Unknown
Radar Cross Section
Small (<0.1 m²)

Expand to show TLE details & history
Last TLE update: 20 hours ago

TLE from 20 hours ago
0 THORAD DELTA 1 DEB
1 08161U 74089AB  25242.46307720  .00000144  00000-0  18662-2 0  9992
2 08161 101.2355 313.3067 0366767 311.8020  59.8546 11.99393537552838
Epoch: 2025-08-30T11:06Z
TLE epoch observation values (Epoch: 2025-08-30T11:06:49.87Z)
Latitude
15.05188°
Longitude
164.65462°
Altitude
1,545.246 km
Speed
7.157 km/s
True Right ascension
20h 41m 02s
True Declination
14° 58' 28"
Sunlit
Object was in full shadow at epoch
Visualization orbit readout
Latitude
Unknown
Longitude
Unknown
Altitude
Unknown
Speed
Unknown
Apparent Right ascension
Unknown
Apparent Declination
Unknown
Sunlit
N/A
Visualization observer readout
Local Sidereal Time
22:52:48
Azimuth
Unknown
Elevation
Unknown
Doppler factor
Unknown
Orbital elements
Apogee altitude
1,976.745 km
Perigee altitude
1,385.569 km
Semi-major axis
8,059.294 km
Eccentricity
0.03668
Inclination
101.2355°
RAAN
313.3067°
Arg. of periapsis
311.802°
True anomaly
63.57197°
Mean anomaly
59.8546°
Eccentric anomaly
61.70494°
Mean motion
2.99984 °/min
Orbital period
120.01 mins
BSTAR
0.0018662
Loading maneuver chart data...
Computing Atmospheric mass density...
Loading historical data...
Loading historical data...
Loading historical data...
Loading historical data...
Loading historical data...
Loading historical data...
Loading historical data...

Documentation

Showing up to 5 results
|